sat.trackr.live / text

‹ back to catalog

STARLINK-11088 [DTC]

NORAD 59709 · 2024-088B

PAYLOAD ACTIVE UNKNOWN

§ Identity

Operator
Country
US
Launch date
2024-05-10
Launch site
AFWTR
Launch vehicle
Mass (kg)
RCS (m²)

Purposes: comms

External: N2YO · Heavens-Above · Gunter

§ Orbital elements

Epoch: 2026-09-21T21:22:10.662816Z

Period
91.74 min
Inclination
53.1573°
Eccentricity
0.0000811
Mean motion
15.69707808 rev/d
Perigee alt
359.2 km
Apogee alt
360.3 km
Semi-major
6,737.9 km
B*
3.6232e-6
RAAN
79.3790°
Arg perigee
67.1707°
Mean anomaly
292.9397°
Rev number
13,708

§ Raw data

STARLINK-11088 [DTC]1 59709U 24088B   26264.89040119 -.00000149  00000+0  36232-5 0  99992 59709  53.1573  79.3790 0000811  67.1707 292.9397 15.69707808137080

JSON: /api/v1/satellites/59709 · /tle

For live sub-satellite position, see the globe view (requires WebGL).

§ Visibility from observer

Set your observer location to see the next 7 days of passes ≥ 10°. The values pass through the URL so the page stays shareable.

No JS? Fill the form by hand. The geolocation button needs JavaScript.